Powrót do katalogu

STARLINK-31900

AktywnyŁącznośćVLEO
NORAD 59942·PAYLOAD·🇺🇸 United States

Wystrzelony Jun 1, 2024 z Cape Canaveral Space Force Station

Loading…

Następne Przeloty (najbliższe 24 godziny)

TLE

ŚwieżeSource: CelesTrak SupGP

Epoka: Sep 15, 2026, 02:01 UTC

1 59942C 24106W   26258.08451389  .00036678  00000+0  13280-2 0  2586
2 59942  43.0035 342.6018 0001874 272.8728  28.5172 15.27570912    11

Śledź STARLINK-31900 w czasie rzeczywistym z AllMySat

Download on the App Store